^^
Datos históricos de la estación: Murcia-Puente Tocinos
Diario Informe para Julio 28, 2019 Unidades:  Ingés    Métrico   Ambas
Diario Semanal Mensual Anual
  Máxima: Mínima: Promedio:
Temperatura: 89.8 °F 76.6 °F 83.7 °F
Punto de rocio: 68.9 °F 51.6 °F 56.5 °F
Humedad: 77% 29% 40%
Velocidad viento: 13mph 1.4mph 6.1mph
Racha viento: 21.9mph - -
Viento- - SSO
Presión: 29.8 in 29.7 in -
Precipitación: 0 in    
 
 
Tabla de datos para Julio 28, 2019
Hora Temperatura Punto de rocio Presión Viento Velocidad viento Racha viento Humedad Intensidad lluvia(por hora) Nubes
00:04 85.6 °F 57 °F 29.7 in NO 10 mph 18.4 mph 38% 0 in
00:09 85.5 °F 57 °F 29.7 in NO 12.3 mph 16.1 mph 38% 0 in
00:14 85.3 °F 56.8 °F 29.7 in ONO 12.3 mph 13.8 mph 38% 0 in
00:19 84.9 °F 57.2 °F 29.7 in ONO 10.2 mph 18.4 mph 39% 0 in
00:24 84.9 °F 57.2 °F 29.7 in ONO 10.2 mph 18.4 mph 39% 0 in
00:29 84.9 °F 57.2 °F 29.7 in NO 13 mph 21.9 mph 39% 0 in
00:34 84.9 °F 57.2 °F 29.7 in ONO 13 mph 17.3 mph 39% 0 in
00:39 84.7 °F 57 °F 29.7 in NO 10.2 mph 12.7 mph 39% 0 in
00:44 84.7 °F 57 °F 29.7 in NO 10.2 mph 15 mph 39% 0 in
00:49 84.6 °F 56.8 °F 29.7 in Oeste 9.2 mph 20.7 mph 39% 0 in
00:54 84.4 °F 56.7 °F 29.7 in ONO 9.2 mph 20.7 mph 39% 0 in
00:59 84.4 °F 56.7 °F 29.7 in ONO 12.3 mph 13.8 mph 39% 0 in
01:04 84 °F 57 °F 29.7 in ONO 12.3 mph 18.4 mph 40% 0 in
01:09 84 °F 56.5 °F 29.7 in ONO 11.4 mph 17.3 mph 39% 0 in
01:14 84 °F 57 °F 29.7 in ONO 11.4 mph 16.1 mph 40% 0 in
01:19 83.8 °F 56.1 °F 29.7 in ONO 10.2 mph 13.8 mph 39% 0 in
01:24 83.7 °F 56.1 °F 29.7 in NO 10.2 mph 15 mph 39% 0 in
01:29 83.7 °F 56.1 °F 29.7 in Oeste 10 mph 16.1 mph 39% 0 in
01:34 83.7 °F 56.1 °F 29.7 in Oeste 10 mph 16.1 mph 39% 0 in
01:39 83.7 °F 55.4 °F 29.7 in ONO 10.7 mph 16.1 mph 38% 0 in
01:44 83.7 °F 55.4 °F 29.7 in OSO 10.7 mph 13.8 mph 38% 0 in
01:49 83.5 °F 55.2 °F 29.7 in ONO 10.2 mph 17.3 mph 38% 0 in
01:54 83.5 °F 55.2 °F 29.7 in OSO 10.2 mph 10.4 mph 38% 0 in
01:59 83.3 °F 55 °F 29.7 in ONO 7.6 mph 17.3 mph 38% 0 in
02:04 83.1 °F 54.9 °F 29.7 in OSO 7.6 mph 8.1 mph 38% 0 in
02:09 83.1 °F 54.9 °F 29.7 in Oeste 7.4 mph 9.2 mph 38% 0 in
02:14 82.9 °F 54.7 °F 29.7 in ONO 7.4 mph 11.5 mph 38% 0 in
02:19 82.8 °F 54.7 °F 29.7 in ONO 6.4 mph 10.2 mph 38% 0 in
02:24 82.8 °F 55.2 °F 29.7 in ONO 6.4 mph 8.1 mph 39% 0 in
02:29 82.6 °F 55 °F 29.7 in ONO 5.4 mph 3.6 mph 39% 0 in
02:34 82.6 °F 55 °F 29.7 in OSO 5.4 mph 3.5 mph 39% 0 in
02:39 82.4 °F 55 °F 29.7 in OSO 2.4 mph 5.9 mph 39% 0 in
02:44 82.2 °F 54.9 °F 29.7 in SSO 2.4 mph 4.7 mph 39% 0 in
02:49 82.2 °F 54.9 °F 29.7 in OSO 4 mph 6.9 mph 39% 0 in
02:54 82.2 °F 54.9 °F 29.7 in OSO 4 mph 5.4 mph 39% 0 in
02:59 82 °F 54.7 °F 29.7 in SO 4.7 mph 6.9 mph 39% 0 in
03:04 82 °F 54.7 °F 29.7 in OSO 4.7 mph 11.5 mph 39% 0 in
03:09 82 °F 54.7 °F 29.7 in Oeste 6.4 mph 8.1 mph 39% 0 in
03:14 81.9 °F 54.5 °F 29.7 in OSO 6.4 mph 10.4 mph 39% 0 in
03:19 81.7 °F 54.3 °F 29.7 in Oeste 6.2 mph 10.4 mph 39% 0 in
03:24 81.5 °F 54.1 °F 29.7 in OSO 6.2 mph 8.1 mph 39% 0 in
03:29 81.3 °F 54.7 °F 29.7 in OSO 6.2 mph 9.2 mph 40% 0 in
03:34 81.1 °F 54.5 °F 29.7 in Oeste 6.2 mph 6.9 mph 40% 0 in
03:39 81.1 °F 54.5 °F 29.7 in NO 5.2 mph 6.9 mph 40% 0 in
03:44 81 °F 54.3 °F 29.7 in NO 5.2 mph 2.4 mph 40% 0 in
03:49 81 °F 54.3 °F 29.7 in NO 2 mph 3.5 mph 40% 0 in
03:54 80.8 °F 54.9 °F 29.7 in Oeste 2 mph 3.6 mph 41% 0 in
03:59 80.4 °F 54.7 °F 29.7 in NO 2.4 mph 5.8 mph 41% 0 in
04:04 80.2 °F 55 °F 29.7 in Oeste 2.4 mph 4.3 mph 42% 0 in
04:09 80.1 °F 54.9 °F 29.7 in SO 2.9 mph 5.8 mph 42% 0 in
04:14 80.1 °F 54.9 °F 29.7 in Sur 2.9 mph 3.5 mph 42% 0 in
04:19 80.1 °F 54.9 °F 29.7 in SO 2.4 mph 6.9 mph 42% 0 in
04:24 80.1 °F 54.9 °F 29.7 in SSE 2.4 mph 8.1 mph 42% 0 in
04:29 80.1 °F 54.1 °F 29.7 in SO 5.2 mph 5.8 mph 41% 0 in
04:34 80.1 °F 54.1 °F 29.7 in Sur 5.2 mph 6.9 mph 41% 0 in
04:39 79.9 °F 54.7 °F 29.7 in Oeste 4.3 mph 4.6 mph 42% 0 in
04:44 79.9 °F 54.7 °F 29.7 in ONO 4.3 mph 4.3 mph 42% 0 in
04:49 79.9 °F 55.4 °F 29.7 in ONO 3.6 mph 5.8 mph 43% 0 in
04:54 79.9 °F 55.4 °F 29.7 in Oeste 3.6 mph 4.6 mph 43% 0 in
04:59 79.7 °F 55.2 °F 29.7 in NO 3.6 mph 4.6 mph 43% 0 in
05:04 79.5 °F 55 °F 29.7 in Oeste 3.6 mph 5.8 mph 43% 0 in
05:09 79.7 °F 55.2 °F 29.7 in ONO 4.3 mph 8.1 mph 43% 0 in
05:14 79.7 °F 55.2 °F 29.7 in Oeste 4.3 mph 8.1 mph 43% 0 in
05:19 79.5 °F 55 °F 29.7 in OSO 4.7 mph 5.8 mph 43% 0 in
05:24 79.3 °F 54.9 °F 29.7 in Oeste 4.7 mph 6.9 mph 43% 0 in
05:29 79.3 °F 54.9 °F 29.7 in Oeste 3.6 mph 11.2 mph 43% 0 in
05:34 79.5 °F 55 °F 29.7 in Oeste 3.6 mph 6.9 mph 43% 0 in
05:39 79.5 °F 55 °F 29.7 in NO 5.2 mph 5.8 mph 43% 0 in
05:44 79.3 °F 54.9 °F 29.7 in ONO 5.2 mph 5.8 mph 43% 0 in
05:49 79.3 °F 55.6 °F 29.7 in NO 4.3 mph 9.2 mph 44% 0 in
05:54 79.3 °F 55.6 °F 29.7 in ONO 4.3 mph 6.9 mph 44% 0 in
05:59 79.2 °F 55.4 °F 29.7 in NNO 5.4 mph 9.2 mph 44% 0 in
06:04 79.2 °F 55.4 °F 29.7 in ONO 5.4 mph 8.1 mph 44% 0 in
06:09 79.2 °F 55.4 °F 29.7 in SO 5.4 mph 4.6 mph 44% 0 in
06:14 79 °F 55.2 °F 29.7 in OSO 5.4 mph 4.6 mph 44% 0 in
06:19 78.8 °F 55 °F 29.7 in OSO 2.4 mph 3.5 mph 44% 0 in
06:24 78.6 °F 54.9 °F 29.7 in SO 2.4 mph 3.5 mph 44% 0 in
06:29 78.6 °F 54.9 °F 29.7 in SO 2 mph   44% 0 in
06:34 78.6 °F 55.6 °F 29.7 in SO 2 mph 2.3 mph 45% 0 in
06:39 78.4 °F 54.1 °F 29.7 in SO 1.8 mph 4.6 mph 43% 0 in
06:44 78.4 °F 54.1 °F 29.7 in SO 1.8 mph 4.6 mph 43% 0 in
06:49 78.4 °F 54.1 °F 29.8 in SSO 2 mph 3.6 mph 43% 0 in
06:54 78.4 °F 53.4 °F 29.8 in SSO 2 mph 4.6 mph 42% 0 in
06:59 78.4 °F 54.1 °F 29.8 in SO 3.6 mph 5.8 mph 43% 0 in
07:04 78.4 °F 53.4 °F 29.8 in SO 3.6 mph 6.2 mph 42% 0 in
07:09 78.4 °F 54.1 °F 29.8 in SO 4.3 mph 6.9 mph 43% 0 in
07:14 78.3 °F 54 °F 29.8 in Oeste 4.3 mph 6.9 mph 43% 0 in
07:19 78.3 °F 54 °F 29.8 in SSO 5.2 mph 5.8 mph 43% 0 in
07:24 78.3 °F 54 °F 29.8 in Oeste 5.2 mph 2.4 mph 43% 0 in
07:29 78.1 °F 53.8 °F 29.8 in SO 2 mph 2.3 mph 43% 0 in
07:34 78.3 °F 54 °F 29.8 in NO 2 mph 2.3 mph 43% 0 in
07:39 78.3 °F 54 °F 29.8 in OSO 1.4 mph 4.6 mph 43% 0 in
07:44 78.1 °F 53.8 °F 29.8 in ONO 1.4 mph 5.8 mph 43% 0 in
07:49 78.1 °F 54.3 °F 29.8 in OSO 2.4 mph 4.6 mph 44% 0 in
07:54 77.7 °F 54.1 °F 29.8 in OSO 2.4 mph 4.6 mph 44% 0 in
07:59 77.7 °F 54.1 °F 29.8 in SO 3.6 mph 4.6 mph 44% 0 in
08:04 77.5 °F 54 °F 29.8 in SSO 3.6 mph 4.6 mph 44% 0 in
08:09 77.7 °F 54.7 °F 29.8 in SSO 3.1 mph 4.7 mph 45% 0 in
08:14 77.7 °F 54.7 °F 29.8 in SSO 3.1 mph 2.3 mph 45% 0 in
08:19 78.1 °F 55 °F 29.8 in OSO 2 mph 2.4 mph 45% 0 in
08:24 78.4 °F 55.9 °F 29.8 in SE 2 mph 3.5 mph 46% 0 in
08:29 78.8 °F 55.8 °F 29.8 in Sur 2 mph 5.8 mph 45% 0 in
08:34 79 °F 55.8 °F 29.8 in SSE 2 mph 6.9 mph 45% 0 in
08:39 78.8 °F 55.8 °F 29.8 in SSE 4.7 mph 5.8 mph 45% 0 in
08:44 79 °F 55.2 °F 29.8 in SSO 4.7 mph 6.2 mph 44% 0 in
08:49 79.2 °F 55.4 °F 29.8 in SO 4 mph 5.2 mph 44% 0 in
08:54 79.5 °F 55.8 °F 29.8 in ONO 4 mph 9.2 mph 44% 0 in
08:59 79.9 °F 55.9 °F 29.8 in OSO 4.3 mph 6.9 mph 44% 0 in
09:04 80.1 °F 56.1 °F 29.8 in SO 4.3 mph 10.4 mph 44% 0 in
09:09 80.2 °F 56.3 °F 29.8 in OSO 4.7 mph 8.1 mph 44% 0 in
09:14 80.4 °F 56.5 °F 29.8 in NO 4.7 mph 4.6 mph 44% 0 in
09:19 81 °F 57 °F 29.8 in NO 4.7 mph 8.1 mph 44% 0 in
09:24 81 °F 56.5 °F 29.8 in ONO 4.7 mph 5.8 mph 43% 0 in
09:29 81.1 °F 56.5 °F 29.8 in NO 5.4 mph 8.5 mph 43% 0 in
09:34 81.1 °F 56.5 °F 29.8 in ONO 5.4 mph 15 mph 43% 0 in
09:39 81.5 °F 56.1 °F 29.8 in OSO 7.6 mph 11.5 mph 42% 0 in
09:44 81.7 °F 56.5 °F 29.8 in ONO 7.6 mph 13.8 mph 42% 0 in
09:49 81.7 °F 56.5 °F 29.8 in Oeste 9.7 mph 11.5 mph 42% 0 in
09:54 82 °F 55.9 °F 29.8 in ONO 9.7 mph 11.5 mph 41% 0 in
09:59 82 °F 55.9 °F 29.8 in Oeste 6.2 mph 8.5 mph 41% 0 in
10:04 82.2 °F 55.6 °F 29.8 in NO 6.2 mph 6.9 mph 40% 0 in
10:09 82.2 °F 55.6 °F 29.8 in ONO 5.9 mph 9.7 mph 40% 0 in
10:14 82.2 °F 55.6 °F 29.8 in Oeste 5.9 mph 11.5 mph 40% 0 in
10:19 82.2 °F 55.6 °F 29.8 in OSO 6.2 mph 6.9 mph 40% 0 in
10:24 82.4 °F 55.8 °F 29.8 in NNO 6.2 mph 4.6 mph 40% 0 in
10:29 82.6 °F 55.8 °F 29.8 in NNE 4.3 mph 5.8 mph 40% 0 in
10:34 82.9 °F 55.4 °F 29.8 in NO 4.3 mph 4.6 mph 39% 0 in
10:39 83.7 °F 56.1 °F 29.8 in ENE 2.9 mph 4.6 mph 39% 0 in
10:44 84 °F 55.8 °F 29.8 in OSO 2.9 mph 4.6 mph 38% 0 in
10:49 84.2 °F 55 °F 29.8 in OSO 3.1 mph 4.6 mph 37% 0 in
10:54 84.4 °F 55.2 °F 29.8 in SO 3.1 mph 4.7 mph 37% 0 in
10:59 84.4 °F 55.2 °F 29.8 in SSO 2.4 mph 5.8 mph 37% 0 in
11:04 84.6 °F 55.4 °F 29.8 in Oeste 2.4 mph 6.9 mph 37% 0 in
11:09 84.7 °F 55.6 °F 29.8 in SE 3.1 mph 4.6 mph 37% 0 in
11:14 85.1 °F 55 °F 29.8 in SSO 3.1 mph 2.3 mph 36% 0 in
11:19 85.6 °F 55.6 °F 29.8 in ENE 2.9 mph 4.6 mph 36% 0 in
11:24 86 °F 55.2 °F 29.8 in NNO 2.9 mph 8.1 mph 35% 0 in
11:29 86.4 °F 55.6 °F 29.8 in NNO 3.1 mph 5.8 mph 35% 0 in
11:34 86.4 °F 55.6 °F 29.8 in ENE 3.1 mph 5.4 mph 35% 0 in
11:39 86.4 °F 55.6 °F 29.8 in NE 2.9 mph 5.8 mph 35% 0 in
11:44 86.5 °F 54.9 °F 29.8 in ONO 2.9 mph 5.8 mph 34% 0 in
11:49 86.5 °F 54.9 °F 29.8 in SSO 3.1 mph 2.3 mph 34% 0 in
11:54 86.7 °F 55 °F 29.8 in SE 3.1 mph 4.6 mph 34% 0 in
11:59 86.9 °F 54.3 °F 29.8 in Sur 2.9 mph 6.9 mph 33% 0 in
12:04 86.7 °F 54.1 °F 29.8 in SSO 2.9 mph 4.6 mph 33% 0 in
12:09 86.7 °F 53.2 °F 29.8 in SE 4 mph 8.1 mph 32% 0 in
12:14 86.7 °F 53.2 °F 29.8 in NO 4 mph 4.6 mph 32% 0 in
12:19 86.7 °F 54.1 °F 29.8 in NO 3.1 mph 4.6 mph 33% 0 in
12:24 86.5 °F 53.2 °F 29.8 in OSO 3.1 mph 4.6 mph 32% 0 in
12:29 87.1 °F 53.6 °F 29.8 in NE 3.1 mph 5.8 mph 32% 0 in
12:34 87.4 °F 52.2 °F 29.8 in SE 3.1 mph 6.9 mph 30% 0 in
12:39 87.6 °F 52.3 °F 29.8 in Este 4 mph 5.8 mph 30% 0 in
12:44 87.6 °F 52.3 °F 29.8 in SSO 4 mph 4.6 mph 30% 0 in
12:49 88 °F 51.6 °F 29.8 in ESE 3.1 mph 6.9 mph 29% 0 in
12:54 88 °F 52.7 °F 29.8 in Este 3.1 mph 5.8 mph 30% 0 in
12:59 88 °F 52.7 °F 29.8 in Este 4.3 mph 4.3 mph 30% 0 in
13:04 88.3 °F 52 °F 29.8 in Oeste 4.3 mph 5.8 mph 29% 0 in
13:09 88.3 °F 52 °F 29.8 in SE 2.9 mph 2.3 mph 29% 0 in
13:14 88.5 °F 52.2 °F 29.8 in ONO 2.9 mph 6.9 mph 29% 0 in
13:19 88.5 °F 53.1 °F 29.8 in NNO 3.6 mph 4.6 mph 30% 0 in
13:24 88.9 °F 52.5 °F 29.8 in SO 3.6 mph 4.6 mph 29% 0 in
13:29 89.2 °F 52.9 °F 29.8 in SO 2.9 mph 5.8 mph 29% 0 in
13:34 89.4 °F 53.1 °F 29.8 in Oeste 2.9 mph 3.5 mph 29% 0 in
13:39 89.8 °F 53.2 °F 29.8 in ESE 3.1 mph 4.7 mph 29% 0 in
13:44 89.4 °F 53.1 °F 29.8 in SE 3.1 mph 4.6 mph 29% 0 in
13:49 89.4 °F 59 °F 29.8 in ESE 4 mph 16.1 mph 36% 0 in
13:54 88.7 °F 60.6 °F 29.8 in SE 4 mph 12.7 mph 39% 0 in
13:59 88.7 °F 59.2 °F 29.8 in SE 9.2 mph 15 mph 37% 0 in
14:04 88.9 °F 57.7 °F 29.8 in ENE 9.2 mph 11.5 mph 35% 0 in
14:09 89.1 °F 60.1 °F 29.8 in SE 6.9 mph 17.3 mph 38% 0 in
14:14 89.1 °F 61 °F 29.8 in SE 6.9 mph 12.7 mph 39% 0 in
14:19 88.9 °F 60.1 °F 29.8 in ESE 8.7 mph 13.8 mph 38% 0 in
14:24 88.7 °F 58.3 °F 29.8 in SE 8.7 mph 12.7 mph 36% 0 in
14:29 88.5 °F 56.7 °F 29.8 in ESE 8.1 mph 8.1 mph 34% 0 in
14:34 89.1 °F 57.7 °F 29.8 in SE 8.1 mph 5.8 mph 35% 0 in
14:39 89.2 °F 59.5 °F 29.8 in SE 5.4 mph 18.4 mph 37% 0 in
14:44 89.2 °F 59.5 °F 29.8 in SE 5.4 mph 10.4 mph 37% 0 in
14:49 89.1 °F 59.4 °F 29.8 in SSE 8.1 mph 8.1 mph 37% 0 in
14:54 89.1 °F 60.1 °F 29.8 in SE 8.1 mph 15.9 mph 38% 0 in
14:59 89.4 °F 59.7 °F 29.8 in Sur 8.1 mph 12.7 mph 37% 0 in
15:04 89.1 °F 59.4 °F 29.8 in SSE 8.1 mph 12.7 mph 37% 0 in
15:09 88.9 °F 59.2 °F 29.8 in ESE 9.2 mph 16.1 mph 37% 0 in
15:14 88.9 °F 59.2 °F 29.8 in ESE 9.2 mph 16.1 mph 37% 0 in
15:19 89.2 °F 59.5 °F 29.7 in SE 11.2 mph 12.7 mph 37% 0 in
15:22 89.4 °F 59 °F 29.7 in SE 11.2 mph 15 mph 36% 0 in
17:34 89.6 °F 58.3 °F 29.7 in SE 10.7 mph 11.4 mph 35% 0 in
17:39 89.8 °F 57.7 °F 29.7 in Este 10.2 mph 18.4 mph 34% 0 in
17:44 89.6 °F 57.6 °F 29.7 in SE 10.2 mph 16.1 mph 34% 0 in
17:49 89.6 °F 56.7 °F 29.7 in SSE 10.2 mph 18.4 mph 33% 0 in
17:54 89.8 °F 57.7 °F 29.7 in SE 10.2 mph 15 mph 34% 0 in
17:59 89.4 °F 56.5 °F 29.7 in SSE 11.4 mph 16.1 mph 33% 0 in
18:04 89.6 °F 56.7 °F 29.7 in SE 11.4 mph 15.9 mph 33% 0 in
18:09 89.4 °F 56.5 °F 29.7 in SSE 10.2 mph 15 mph 33% 0 in
18:14 89.2 °F 56.5 °F 29.7 in SE 10.2 mph 18.4 mph 33% 0 in
18:19 89.4 °F 55.8 °F 29.7 in ESE 11.2 mph 15.2 mph 32% 0 in
18:24 89.6 °F 55.8 °F 29.7 in Este 11.2 mph 12.7 mph 32% 0 in
18:29 89.8 °F 55.9 °F 29.7 in ESE 10.7 mph 15 mph 32% 0 in
18:34 89.8 °F 55.9 °F 29.7 in ENE 10.7 mph 13.8 mph 32% 0 in
18:39 89.4 °F 55.8 °F 29.7 in SSE 9.7 mph 16.1 mph 32% 0 in
18:44 89.2 °F 56.5 °F 29.7 in ESE 9.7 mph 14 mph 33% 0 in
18:49 89.1 °F 56.1 °F 29.7 in SSE 10.7 mph 13.8 mph 33% 0 in
18:54 88.5 °F 55.8 °F 29.7 in SE 10.7 mph 19.6 mph 33% 0 in
18:59 88.2 °F 56.3 °F 29.7 in SE 12.3 mph 16.1 mph 34% 0 in
19:04 88.2 °F 56.3 °F 29.7 in SE 12.3 mph 13.8 mph 34% 0 in
19:09 88.2 °F 56.3 °F 29.7 in Este 11.4 mph 15 mph 34% 0 in
19:14 88.2 °F 54.7 °F 29.7 in SE 11.4 mph 17.3 mph 32% 0 in
19:19 88.2 °F 55.4 °F 29.7 in SE 11.2 mph 19.6 mph 33% 0 in
19:24 87.8 °F 54.3 °F 29.7 in ESE 11.2 mph 17.3 mph 32% 0 in
19:29 87.8 °F 54.3 °F 29.7 in ENE 11.4 mph 18.4 mph 32% 0 in
19:34 87.8 °F 55.9 °F 29.7 in ESE 11.4 mph 17.3 mph 34% 0 in
19:39 87.6 °F 55.8 °F 29.7 in SE 11.2 mph 20.7 mph 34% 0 in
19:44 87.6 °F 56.7 °F 29.7 in ESE 11.2 mph 16.1 mph 35% 0 in
19:49 87.6 °F 57.4 °F 29.7 in SSE 10 mph 10.4 mph 36% 0 in
19:54 87.6 °F 56.7 °F 29.7 in SE 10 mph 15.6 mph 35% 0 in
19:59 87.4 °F 56.5 °F 29.7 in ESE 8.1 mph 16.3 mph 35% 0 in
20:04 87.4 °F 56.5 °F 29.7 in SE 8.1 mph 12.7 mph 35% 0 in
20:09 87.3 °F 57 °F 29.7 in Este 8.1 mph 8.7 mph 36% 0 in
20:14 87.3 °F 56.3 °F 29.7 in SSO 8.1 mph 13.8 mph 35% 0 in
20:19 87.1 °F 56.1 °F 29.7 in SSE 8.1 mph 13.8 mph 35% 0 in
20:24 87.1 °F 56.1 °F 29.7 in SSE 8.1 mph 10.4 mph 35% 0 in
20:29 87.1 °F 56.8 °F 29.7 in SE 6.4 mph 8.1 mph 36% 0 in
20:34 86.7 °F 56.7 °F 29.7 in SSE 6.4 mph 11.5 mph 36% 0 in
20:39 86.5 °F 57.2 °F 29.7 in SSE 6.4 mph 9.7 mph 37% 0 in
20:44 86.2 °F 57.6 °F 29.7 in Sur 6.4 mph 8.1 mph 38% 0 in
20:49 86 °F 57.4 °F 29.7 in Sur 6.9 mph 8.1 mph 38% 0 in
20:54 85.8 °F 57.9 °F 29.7 in SE 6.9 mph 9.2 mph 39% 0 in
20:59 85.6 °F 57.7 °F 29.7 in SE 6.4 mph 8.1 mph 39% 0 in
21:04 85.5 °F 57.7 °F 29.8 in SSE 6.4 mph 6.9 mph 39% 0 in
21:09 85.3 °F 58.3 °F 29.8 in SSO 5.9 mph 10.4 mph 40% 0 in
21:14 84.9 °F 57.9 °F 29.8 in ESE 5.9 mph 11.5 mph 40% 0 in
21:19 84.9 °F 57.9 °F 29.8 in Sur 7.4 mph 10.4 mph 40% 0 in
21:24 84.6 °F 58.3 °F 29.8 in Sur 7.4 mph 12.7 mph 41% 0 in
21:29 84.4 °F 58.1 °F 29.8 in SE 9.2 mph 11.5 mph 41% 0 in
21:34 84.4 °F 57.4 °F 29.8 in SSE 9.2 mph 10.4 mph 40% 0 in
21:39 84.4 °F 56.7 °F 29.8 in ESE 7.6 mph 9.2 mph 39% 0 in
21:44 84.4 °F 56.7 °F 29.8 in SE 7.6 mph 8.1 mph 39% 0 in
21:49 84.4 °F 56.7 °F 29.8 in SE 6.9 mph 8.1 mph 39% 0 in
21:54 84.2 °F 56.7 °F 29.8 in ONO 6.9 mph 3.5 mph 39% 0 in
21:59 84 °F 56.5 °F 29.8 in NO 3.6 mph 4.6 mph 39% 0 in
22:04 84 °F 56.5 °F 29.8 in NE 3.6 mph 3.5 mph 39% 0 in
22:09 83.8 °F 56.1 °F 29.8 in Este 1.8 mph 3.6 mph 39% 0 in
22:14 83.8 °F 56.8 °F 29.8 in NNE 1.8 mph 5.8 mph 40% 0 in
22:19 83.7 °F 56.8 °F 29.8 in NE 3.6 mph 4.6 mph 40% 0 in
22:24 83.5 °F 57.4 °F 29.8 in NE 3.6 mph 2.4 mph 41% 0 in
22:29 83.5 °F 57.4 °F 29.8 in NNE 2.4 mph 4.6 mph 41% 0 in
22:34 82.9 °F 60.1 °F 29.8 in NE 2.4 mph 8.1 mph 46% 0 in
22:39 81.7 °F 62.2 °F 29.8 in NE 5.2 mph 8.1 mph 52% 0 in
22:44 81 °F 63.9 °F 29.8 in NNE 5.2 mph 6.9 mph 56% 0 in
22:49 80.4 °F 64.8 °F 29.8 in North 5.4 mph 5.8 mph 59% 0 in
22:54 80.1 °F 65.8 °F 29.8 in NNE 5.4 mph 8.5 mph 62% 0 in
22:59 79.5 °F 66.4 °F 29.8 in NE 5.9 mph 9.2 mph 64% 0 in
23:04 79.2 °F 66.4 °F 29.8 in NNE 5.9 mph 7.4 mph 65% 0 in
23:09 79 °F 67.1 °F 29.8 in NE 6.2 mph 10.4 mph 67% 0 in
23:14 78.6 °F 67.3 °F 29.8 in NNE 6.2 mph 10.4 mph 68% 0 in
23:19 78.3 °F 67.3 °F 29.8 in NE 7.4 mph 9.2 mph 69% 0 in
23:24 78.1 °F 67.5 °F 29.8 in NE 7.4 mph 10.4 mph 70% 0 in
23:29 77.7 °F 68 °F 29.8 in NNE 6.4 mph 11.5 mph 72% 0 in
23:34 77.5 °F 68.2 °F 29.8 in NNE 6.4 mph 13 mph 73% 0 in
23:39 77.4 °F 68.4 °F 29.8 in NNE 8.1 mph 11.4 mph 74% 0 in
23:44 77.2 °F 68.5 °F 29.8 in North 8.1 mph 15 mph 75% 0 in
23:49 77 °F 68.5 °F 29.8 in North 8.1 mph 10.2 mph 75% 0 in
23:54 76.8 °F 68.7 °F 29.8 in NNE 8.1 mph 9.7 mph 76% 0 in
23:59 76.6 °F 68.9 °F 29.8 in NNE 8.1 mph 11.5 mph 77% 0 in
Murcia-Puente Tocinos, España
Compliments of Weather Underground - 2.75 mb

La estación de MeteoMurcia.com, publica sus datos en los siguientes proyectos:

Weather Underground PWS IMURCIAP2 Meteoclimatic www.awekas.at

W3Counter
Web Analytics